#timestamp,LO_Frequency,Hit,StdDev 
1686718815.4,286047014.8,Y
1686718835.2,286047013.4,P
1686718855.1,286047010.6,N
1686718856.0,286047010.6,N
1686718875.8,286047005.1,N
1686718895.7,286047006.0,N
1686718915.5,286046998.6,N
1686718935.3,286046998.1,N
1686718955.2,286047002.0,N
1686718975.9,286046999.8,N
1686718995.7,286047000.1,N
1686719015.6,286046999.1,N
1686719035.4,286047001.2,N
1686719055.2,286047000.9,N
1686719075.1,286047002.2,N
1686719076.0,286047002.2,N
1686719095.8,286046998.2,N
1686719115.7,286047001.1,N
1686719135.5,286046998.9,N
1686719155.3,286047002.2,N
1686719175.2,286047012.4,N
1686719195.0,286047013.2,N
1686719195.9,286047013.2,N
1686719215.8,286047018.5,Y
1686719235.6,286047006.9,P
1686719255.4,286047003.4,N
1686719275.3,286047008.7,P
1686719295.1,286047004.8,N
1686719315.8,286047004.0,N
1686719335.7,286047001.9,N
1686719355.5,286047007.3,Y
1686719375.4,286047006.3,P
1686719395.2,286047009.4,P
1686719415.0,286047001.5,N
1686719415.9,286047001.5,N
1686719435.8,286046995.7,N
1686719455.6,286047002.7,N
1686719475.4,286047004.0,N
1686719495.3,286047000.8,N
1686719515.1,286046995.2,N
1686719535.9,286046995.4,N
1686719555.7,286046993.6,N
1686719575.5,286046993.3,N
1686719595.4,286046994.5,N
1686719615.2,286046992.5,N
1686719635.0,286046987.5,N
1686719635.9,286046987.5,N
1686719655.8,286046991.2,N
1686719675.6,286046995.2,N
1686719695.5,286047005.1,N
1686719715.3,286047007.0,N
1686719735.1,286047003.8,N
1686719755.9,286047005.8,N
1686719775.7,286047003.0,N
1686719795.5,286046996.9,N
1686719815.4,286047002.4,N
1686719835.2,286047009.7,N
1686719855.0,286047018.0,N
1686719856.0,286047018.0,N
1686719875.8,286047021.2,N
1686719895.6,286047028.8,Y
1686719915.5,286047026.6,P
1686719935.3,286047023.3,N
1686719955.1,286047028.5,N
1686719975.9,286047035.1,Y
1686719995.7,286047012.2,P
1686720015.6,286047007.9,N
1686720035.4,286047005.5,N
1686720055.2,286047001.6,N
1686720075.1,286047006.0,N
1686720076.0,286047006.0,N
1686720095.8,286047001.5,N
1686720115.7,286046998.4,N
1686720135.5,286046999.9,N
1686720155.3,286047006.7,N
1686720175.2,286047008.5,N
1686720195.9,286047008.4,N
1686720215.7,286047013.3,N
1686720235.6,286047010.8,N
1686720255.4,286047001.5,N
1686720275.2,286047008.6,N
1686720295.1,286047015.2,N
1686720296.0,286047015.2,N
1686720315.8,286047016.7,N
1686720335.7,286047011.5,N
1686720355.5,286047003.3,N
1686720375.3,286046995.2,N
1686720395.2,286046984.3,N
1686720415.0,286046974.4,Y
1686720415.9,286046974.4,P
1686720435.8,286046959.9,N
1686720455.6,286046954.5,N
1686720475.4,286046953.1,N
1686720495.3,286046956.0,N
1686720515.1,286046961.1,N
1686720535.8,286046954.7,N
1686720555.7,286046952.6,N
1686720575.5,286046951.6,N
1686720595.4,286046945.9,Y
1686720615.2,286046982.6,P
1686720635.0,286046981.8,N
1686720635.9,286046981.8,N
1686720655.8,286046982.5,N
1686720675.6,286046991.7,N
1686720695.4,286046988.5,N
1686720715.3,286046994.3,N
1686720735.1,286047002.4,N
1686720755.9,286047003.9,N
1686720775.7,286046998.7,N
1686720795.5,286046999.6,N
1686720815.4,286046991.9,N
1686720835.2,286046988.5,N
1686720855.0,286046993.6,N
1686720855.9,286046993.6,N
1686720875.8,286047002.0,N
1686720895.6,286047006.6,N
1686720915.5,286047012.5,N
1686720935.3,286047010.5,N
1686720955.1,286047011.7,N
1686720975.9,286047011.8,N
1686720995.7,286047011.6,N
1686721015.6,286047013.7,N
1686721035.4,286047015.3,N
1686721055.2,286047017.1,N
1686721075.1,286047009.5,N
1686721076.0,286047009.5,N
1686721095.8,286047018.1,N
1686721115.7,286047017.6,N
1686721135.5,286047012.8,N
1686721155.3,286047019.8,N
1686721175.2,286047016.7,N
1686721195.9,286047022.3,N
1686721215.7,286047021.2,N
1686721235.6,286047009.9,N
1686721255.4,286047004.2,N
1686721275.3,286047000.2,N
1686721295.1,286046992.9,N
1686721296.0,286046992.9,N
1686721315.8,286046987.0,N
1686721335.7,286046977.2,N
1686721355.5,286046974.0,N
1686721375.3,286046970.9,N
1686721395.2,286046967.6,N
1686721415.0,286046962.6,N
1686721415.9,286046962.6,N
1686721435.8,286046953.4,N
1686721455.6,286046954.8,N
1686721475.4,286046956.1,N
1686721495.3,286046959.9,N
1686721515.1,286046964.3,N
1686721535.9,286046963.8,N
1686721555.7,286046968.7,N
1686721575.5,286046971.5,N
1686721595.4,286046971.8,N
1686721615.2,286046974.6,N
1686721635.1,286046974.1,N
1686721636.0,286046974.1,N
1686721655.8,286046976.2,N
1686721675.6,286046978.7,N
1686721695.5,286046974.7,N
1686721715.3,286046965.7,N
1686721735.1,286046958.8,N
1686721755.9,286046961.8,N
1686721775.7,286046964.0,N
1686721795.6,286046959.1,Y
1686721815.4,286046985.2,P
1686721835.2,286046976.0,P
1686721855.1,286046968.7,P
1686721856.0,286046968.7,Y
1686721875.8,286046986.1,P
1686721895.7,286046991.1,N
1686721915.5,286046988.1,N
1686721935.3,286046993.2,N
1686721955.2,286046997.6,N
1686721975.9,286047000.1,N
1686721995.7,286047004.2,N
1686722015.6,286046999.0,N
1686722035.5,286046995.5,N
1686722055.3,286046990.3,N
1686722075.1,286046984.6,N
1686722095.9,286046981.9,N
1686722115.7,286046982.5,N
1686722135.6,286046989.7,N
1686722155.4,286046985.3,N
1686722175.2,286046990.7,N
1686722195.1,286046994.5,N
1686722196.0,286046994.5,N
1686722215.8,286046995.6,N
1686722235.7,286046993.1,N
1686722255.5,286046986.8,N
1686722275.3,286046980.2,N
1686722295.2,286046979.6,N
1686722315.0,286046974.2,Y
1686722315.9,286046974.2,P
1686722335.8,286046984.8,N
1686722355.6,286046987.1,N
1686722375.4,286046984.3,N
1686722395.3,286046981.7,Y
